Torna al catalogo

COSMOS 2251 DEB

AttivoLEO
NORAD 33839·DEBRIS·🇷🇺 Russia

Lanciato Jun 16, 1993 da Plesetsk Cosmodrome

Loading…

Prossimi Passaggi (prossime 24 ore)

TLE

AggiornatoSource: Space-Track

Epoca: Sep 14, 2026, 09:31 UTC

1 33839U 93036CG  26257.39654378  .00000779  00000-0  14386-3 0  9992
2 33839  74.0395  36.4708 0082628  78.4098 313.6055 14.65057374936166

Traccia COSMOS 2251 DEB in tempo reale con AllMySat

Download on the App Store